Cook, MN

7:55 AM CST on February 26, 2017 (GMT -0600)
Cook Municipal

Weather History for KCQM - October, 2013

Change the Weather History Date:

Wednesday, October 23, 2013

  Actual Average Record
Temperature  
Mean Temperature 30 °F -  
Max Temperature 33 °F 45 °F 71 °F (1998)
Min Temperature 26 °F 29 °F 24 °F (1997)
Degree Days  
Heating Degree Days 36    
Moisture  
Dew Point 26 °F    
Average Humidity 83    
Maximum Humidity 100    
Minimum Humidity 60    
Precipitation  
Precipitation 0.00 in - - ()
Sea Level Pressure  
Sea Level Pressure 29.96 in    
Wind  
Wind Speed 7 mph (WNW)    
Max Wind Speed 13 mph    
Max Gust Speed 21 mph    
Visibility 9 miles    
Events Snow    
Averages and records for this station are not official NWS values.
T = Trace of Precipitation, MM = Missing Value Source: NWS Daily Summary

Daily Weather History Graph

Daily Weather History Graph

Search for Another Location

Airport or City:

Trip Planner

Search our weather history database for the weather conditions in past years. The results will help you decide how hot, cold, wet, or windy it might be!

Date:

Astronomy

Oct. 23, 2013 Rise Set
Actual Time 7:42 AM CDT 6:07 PM CDT
Civil Twilight 7:10 AM CDT 6:38 PM CDT
Nautical Twilight 6:34 AM CDT 7:14 PM CDT
Astronomical Twilight 5:58 AM CDT 7:50 PM CDT
Moon 9:27 PM CDT (10/23) 12:10 PM CDT (10/23)
Length of Visible Light 11h 28m
Length of Day
10h 25m
Waning Gibbous, 79% of the Moon is Illuminated
Oct 23
Waning Gibbous
Oct 26
Last Quarter
Nov 3
New
Nov 9
First Quarter
Nov 17
Full

Hourly Weather History & Observations

Time (CDT) Temp. Windchill Dew Point Humidity Pressure Visibility Wind Dir Wind Speed Gust Speed Precip Events Conditions
12:16 AM 30.2 °F 24.3 °F 26.6 °F 86% 29.94 in 10.0 mi West 5.8 mph - N/A   Overcast
12:36 AM 30.2 °F 24.3 °F 28.4 °F 93% 29.93 in 10.0 mi West 5.8 mph - N/A   Overcast
12:57 AM 30.2 °F 23.4 °F 28.4 °F 93% 29.93 in 10.0 mi West 6.9 mph - N/A   Overcast
1:16 AM 30.2 °F 23.4 °F 28.4 °F 93% 29.93 in 10.0 mi West 6.9 mph - N/A   Overcast
1:36 AM 30.2 °F 24.3 °F 28.4 °F 93% 29.93 in 10.0 mi West 5.8 mph - N/A   Overcast
1:57 AM 30.2 °F 22.6 °F 28.4 °F 93% 29.93 in 10.0 mi West 8.1 mph - N/A   Overcast
2:16 AM 30.2 °F 22.6 °F 26.6 °F 86% 29.93 in 10.0 mi West 8.1 mph - N/A   Overcast
2:36 AM 30.2 °F 23.4 °F 26.6 °F 86% 29.93 in 10.0 mi WNW 6.9 mph - N/A   Overcast
2:56 AM 30.2 °F 24.3 °F 26.6 °F 86% 29.93 in 10.0 mi WNW 5.8 mph - N/A   Overcast
3:16 AM 28.4 °F 23.3 °F 26.6 °F 93% 29.92 in 10.0 mi West 4.6 mph - N/A   Overcast
3:37 AM 28.4 °F 23.3 °F 26.6 °F 93% 29.92 in 10.0 mi West 4.6 mph - N/A   Overcast
3:56 AM 28.4 °F 24.6 °F 26.6 °F 93% 29.92 in 10.0 mi WSW 3.5 mph - N/A   Overcast
4:16 AM 28.4 °F 23.3 °F 26.6 °F 93% 29.92 in 10.0 mi West 4.6 mph - N/A   Mostly Cloudy
4:37 AM 28.4 °F 24.6 °F 26.6 °F 93% 29.92 in 10.0 mi WSW 3.5 mph - N/A   Scattered Clouds
4:57 AM 26.6 °F 22.6 °F 24.8 °F 93% 29.92 in 10.0 mi WSW 3.5 mph - N/A   Scattered Clouds
5:16 AM 26.6 °F 22.6 °F 24.8 °F 93% 29.92 in 10.0 mi West 3.5 mph - N/A   Mostly Cloudy
5:37 AM 26.6 °F 21.2 °F 26.6 °F 100% 29.92 in 10.0 mi West 4.6 mph - N/A   Overcast
5:56 AM 28.4 °F 20.4 °F 26.6 °F 93% 29.92 in 10.0 mi West 8.1 mph - N/A   Overcast
6:17 AM 28.4 °F 22.2 °F 26.6 °F 93% 29.92 in 10.0 mi West 5.8 mph - N/A   Overcast
6:37 AM 28.4 °F 22.2 °F 26.6 °F 93% 29.92 in 10.0 mi West 5.8 mph - N/A   Overcast
6:56 AM 28.4 °F 22.2 °F 26.6 °F 93% 29.93 in 10.0 mi West 5.8 mph - N/A   Overcast
7:17 AM 28.4 °F 21.2 °F 24.8 °F 86% 29.93 in 10.0 mi West 6.9 mph - N/A   Overcast
7:37 AM 28.4 °F 19.7 °F 24.8 °F 86% 29.93 in 10.0 mi West 9.2 mph - N/A   Overcast
7:56 AM 26.6 °F 19.1 °F 23.0 °F 86% 29.94 in 10.0 mi West 6.9 mph - N/A   Mostly Cloudy
8:17 AM 26.6 °F 20.0 °F 23.0 °F 86% 29.94 in 10.0 mi West 5.8 mph - N/A   Mostly Cloudy
8:37 AM 26.6 °F 19.1 °F 24.8 °F 93% 29.94 in 10.0 mi West 6.9 mph - N/A   Overcast
8:56 AM 28.4 °F 20.4 °F 24.8 °F 86% 29.95 in 10.0 mi West 8.1 mph - N/A   Overcast
9:17 AM 28.4 °F 19.7 °F 24.8 °F 86% 29.95 in 10.0 mi WNW 9.2 mph - N/A   Overcast
9:37 AM 28.4 °F 19.1 °F 26.6 °F 93% 29.95 in 10.0 mi West 10.4 mph 17.3 mph N/A Snow Light Snow
9:56 AM 28.4 °F 19.1 °F 24.8 °F 86% 29.95 in 10.0 mi WNW 10.4 mph - N/A   Overcast
10:17 AM 30.2 °F 22.6 °F 24.8 °F 80% 29.95 in 10.0 mi WNW 8.1 mph - N/A   Overcast
10:37 AM 30.2 °F 21.3 °F 24.8 °F 80% 29.95 in 10.0 mi WNW 10.4 mph - N/A   Overcast
10:56 AM 32.0 °F 24.2 °F 24.8 °F 75% 29.95 in 10.0 mi NW 9.2 mph 16.1 mph N/A   Overcast
11:17 AM 32.0 °F 23.0 °F 23.0 °F 69% 29.95 in 10.0 mi NW 11.5 mph 16.1 mph N/A   Overcast
11:37 AM 33.8 °F 26.4 °F 21.2 °F 60% 29.95 in 10.0 mi NW 9.2 mph - N/A   Overcast
11:56 AM 33.8 °F 24.8 °F 21.2 °F 60% 29.96 in 10.0 mi WNW 12.7 mph - N/A   Overcast
12:17 PM 32.0 °F 24.2 °F 21.2 °F 64% 29.96 in 10.0 mi NW 9.2 mph 18.4 mph N/A   Overcast
12:37 PM 32.0 °F 24.2 °F 21.2 °F 64% 29.96 in 10.0 mi WNW 9.2 mph 20.7 mph N/A   Overcast
12:56 PM 32.0 °F 24.8 °F 21.2 °F 64% 29.96 in 10.0 mi WNW 8.1 mph 17.3 mph N/A   Overcast
1:17 PM 32.0 °F 24.8 °F 21.2 °F 64% 29.95 in 10.0 mi NW 8.1 mph 16.1 mph N/A   Overcast
1:36 PM 33.8 °F 25.3 °F 21.2 °F 60% 29.95 in 10.0 mi WNW 11.5 mph 17.3 mph N/A   Overcast
1:56 PM 33.8 °F 26.4 °F 23.0 °F 65% 29.95 in 10.0 mi WNW 9.2 mph - N/A   Overcast
2:17 PM 33.8 °F 25.3 °F 24.8 °F 70% 29.96 in 10.0 mi NW 11.5 mph 17.3 mph N/A   Overcast
2:36 PM 33.8 °F 26.4 °F 24.8 °F 70% 29.96 in 10.0 mi WNW 9.2 mph - N/A   Overcast
2:56 PM 33.8 °F 27.7 °F 24.8 °F 70% 29.96 in 10.0 mi NW 6.9 mph - N/A   Overcast
3:17 PM 33.8 °F 27.0 °F 24.8 °F 70% 29.96 in 10.0 mi WNW 8.1 mph - N/A   Overcast
3:36 PM 33.8 °F 26.4 °F 24.8 °F 70% 29.97 in 10.0 mi WNW 9.2 mph - N/A   Overcast
3:56 PM 33.8 °F 27.7 °F 23.0 °F 65% 29.97 in 10.0 mi NW 6.9 mph - N/A   Overcast
4:16 PM 33.8 °F 26.4 °F 23.0 °F 65% 29.97 in 10.0 mi WNW 9.2 mph - N/A   Overcast
4:37 PM 33.8 °F 26.4 °F 24.8 °F 70% 29.97 in 10.0 mi WNW 9.2 mph - N/A   Overcast
4:56 PM 33.8 °F 25.3 °F 24.8 °F 70% 29.98 in 10.0 mi WNW 11.5 mph - N/A   Overcast
5:17 PM 32.0 °F 24.8 °F 26.6 °F 80% 29.98 in 10.0 mi West 8.1 mph - N/A   Overcast
5:37 PM 32.0 °F 24.2 °F 26.6 °F 80% 29.98 in 10.0 mi West 9.2 mph 17.3 mph N/A   Overcast
5:56 PM 32.0 °F 23.6 °F 26.6 °F 80% 29.98 in 10.0 mi West 10.4 mph - N/A   Overcast
6:17 PM 30.2 °F 21.9 °F 26.6 °F 86% 29.99 in 10.0 mi West 9.2 mph - N/A   Overcast
6:36 PM 30.2 °F 21.9 °F 26.6 °F 86% 29.99 in 10.0 mi West 9.2 mph - N/A   Overcast
6:56 PM 30.2 °F 22.6 °F 26.6 °F 86% 29.99 in 10.0 mi West 8.1 mph - N/A   Overcast
7:17 PM 30.2 °F 21.9 °F 26.6 °F 86% 30.00 in 7.0 mi West 9.2 mph - N/A   Overcast
7:36 PM 30.2 °F 22.6 °F 26.6 °F 86% 30.00 in 10.0 mi WNW 8.1 mph - N/A   Overcast
7:56 PM 30.2 °F 20.8 °F 26.6 °F 86% 30.00 in 10.0 mi West 11.5 mph - N/A   Overcast
8:17 PM 30.2 °F 20.8 °F 28.4 °F 93% 30.00 in 10.0 mi West 11.5 mph - N/A   Overcast
8:37 PM 30.2 °F 21.9 °F 26.6 °F 86% 30.00 in 10.0 mi West 9.2 mph - N/A   Overcast
8:56 PM 30.2 °F 21.9 °F 26.6 °F 86% 30.01 in 7.0 mi WNW 9.2 mph - N/A   Overcast
9:17 PM 30.2 °F 23.4 °F 28.4 °F 93% 30.01 in 4.0 mi WNW 6.9 mph - N/A Snow Light Snow
9:36 PM 30.2 °F 24.3 °F 28.4 °F 93% 30.01 in 7.0 mi WNW 5.8 mph - N/A   Overcast
9:56 PM 30.2 °F 24.3 °F 28.4 °F 93% 30.02 in 2.0 mi WNW 5.8 mph - N/A Snow Light Snow
10:17 PM 30.2 °F 24.3 °F 28.4 °F 93% 30.02 in 2.0 mi WNW 5.8 mph - N/A Snow Light Snow
10:36 PM 30.2 °F 25.4 °F 28.4 °F 93% 30.02 in 10.0 mi WNW 4.6 mph - N/A   Overcast
10:56 PM 30.2 °F 24.3 °F 28.4 °F 93% 30.02 in 7.0 mi WNW 5.8 mph - N/A   Overcast
11:17 PM 30.2 °F 23.4 °F 28.4 °F 93% 30.02 in 2.5 mi West 6.9 mph - N/A Snow Light Snow
11:36 PM 30.2 °F 25.4 °F 28.4 °F 93% 30.02 in 5.0 mi West 4.6 mph - N/A Snow Light Snow
11:57 PM 30.2 °F 25.4 °F 28.4 °F 93% 30.03 in 7.0 mi WNW 4.6 mph - N/A Snow Light Snow